Date String (YYYY-MM-DD hh:mm:ss) UTC,Instrument flags,absolute air pressure of the measurement (hPa),sample flow rate (lpm),inlet stack bypass flow (lpm),air temperature of the measurement (°C),ambient temperature measured by the external sensor (°C),aerosol sample conditioner tube jacket temperature (°C),OPC LED temperature (°C),internal box temperature (°C),relative humidity of the measurement (%),span deviation,mass concentration of particles derived from Lorenz-Mie calculation of OPC scattering (μg/m³),mass concentration of particles derived from Lorenz-Mie calculation of OPC scattering (μg/m³),mass concentration of particles derived from Lorenz-Mie calculation of OPC scattering (μg/m³)
DateTimeUTC,F1_M11,P_M11,Q1_M11,Q2_M11,T1_M11,T2_M11,T3_M11,T4_M11,T5_M11,U1_M11,ZSPAN_M11,X0_M11,X2_M11,X1_M11
2023-06-30 01:00:00,SystemResetWarning,0830.3,5.00,000.00,029.5,028.2,000.0,037.9,031.1,33.8,-002.1,0014.52,0006.67,0005.24
2023-06-30 01:01:00,SystemResetWarning,0830.3,5.00,000.00,029.5,028.3,000.0,038.0,031.1,33.9,-002.0,0014.43,0006.70,0005.25
2023-06-30 01:02:00,SystemResetWarning,0830.4,4.99,000.00,029.5,027.8,000.0,037.9,031.1,33.9,-002.7,0014.21,0006.76,0005.27
2023-06-30 01:03:00,SystemResetWarning,0830.4,4.98,000.00,029.5,026.1,000.0,037.8,030.9,34.0,-001.4,0013.69,0006.79,0005.29
2023-06-30 01:04:00,SystemResetWarning,0830.3,5.02,000.00,029.4,025.4,000.0,037.7,030.7,34.3,-001.1,0013.48,0006.79,0005.31
2023-06-30 01:05:00,SystemResetWarning,0830.3,5.01,000.00,029.3,025.5,000.0,037.7,030.5,34.5,-001.1,0013.52,0006.82,0005.34
2023-06-30 01:06:00,SystemResetWarning,0830.3,4.99,000.00,029.2,025.8,000.0,037.8,030.5,34.7,-000.6,0012.77,0006.80,0005.36
2023-06-30 01:07:00,SystemResetWarning,0830.3,4.99,000.00,029.2,026.2,000.0,037.8,030.5,34.9,-000.5,0012.72,0006.79,0005.36
2023-06-30 01:08:00,SystemResetWarning,0830.3,5.00,000.00,029.2,026.6,000.0,037.8,030.7,35.2,-000.1,0012.74,0006.78,0005.38
2023-06-30 01:09:00,SystemResetWarning,0830.4,5.02,000.00,029.4,026.9,000.0,037.8,030.8,34.2,-000.0,0013.34,0006.79,0005.36
2023-06-30 01:10:00,SystemResetWarning,0830.4,4.97,000.00,029.6,027.2,000.0,037.8,030.9,33.3,-000.3,0013.01,0006.69,0005.31
2023-06-30 01:11:00,SystemResetWarning,0830.5,5.02,000.00,029.7,027.4,000.0,037.8,031.0,33.4,0000.1,0013.12,0006.64,0005.26
2023-06-30 01:12:00,SystemResetWarning,0830.5,4.99,000.00,029.8,027.6,000.0,037.9,031.0,33.3,0000.3,0013.05,0006.56,0005.22
2023-06-30 01:13:00,SystemResetWarning,0830.4,4.98,000.00,029.9,027.7,000.0,037.9,031.0,32.2,0001.0,0012.88,0006.47,0005.17
2023-06-30 01:14:00,SystemResetWarning,0830.5,5.00,000.00,029.9,027.9,000.0,038.0,031.0,32.2,0000.8,0012.65,0006.41,0005.10
2023-06-30 01:15:00,SystemResetWarning,0830.4,5.00,000.00,029.9,028.0,000.0,038.1,031.1,31.6,0000.4,0013.12,0006.36,0005.03
2023-06-30 01:16:00,SystemResetWarning,0830.4,5.01,000.00,030.0,028.1,000.0,038.1,031.1,30.5,0000.3,0013.57,0006.24,0004.93
2023-06-30 01:17:00,SystemResetWarning,0830.5,5.00,000.00,030.0,028.1,000.0,038.2,031.1,30.7,-000.0,0013.97,0006.17,0004.84
2023-06-30 01:18:00,SystemResetWarning,0830.4,5.00,000.00,030.0,028.2,000.0,038.2,031.2,30.5,-000.3,0014.17,0006.07,0004.74
2023-06-30 01:19:00,SystemResetWarning,0830.4,4.99,000.00,030.0,028.3,000.0,038.2,031.2,30.4,0000.1,0014.44,0006.03,0004.63
2023-06-30 01:20:00,SystemResetWarning,0830.4,4.99,000.00,030.1,028.3,000.0,038.3,031.2,30.5,0000.3,0013.48,0005.89,0004.52
2023-06-30 01:21:00,SystemResetWarning,0830.4,5.00,000.00,030.1,028.1,000.0,038.3,031.3,30.6,0000.7,0013.15,0005.82,0004.46
2023-06-30 01:22:00,SystemResetWarning,0830.4,5.00,000.00,030.1,026.5,000.0,038.2,031.1,30.5,0000.3,0012.47,0005.74,0004.42
2023-06-30 01:23:00,SystemResetWarning,0830.4,5.00,000.00,030.0,025.5,000.0,038.1,030.9,30.8,0000.0,0012.33,0005.72,0004.37
2023-06-30 01:24:00,SystemResetWarning,0830.4,5.02,000.00,029.9,025.5,000.0,038.1,030.7,31.2,0000.0,0012.64,0005.71,0004.33
2023-06-30 01:25:00,SystemResetWarning,0830.4,5.01,000.00,029.8,025.8,000.0,038.1,030.6,31.7,0000.0,0012.96,0005.66,0004.30
2023-06-30 01:26:00,SystemResetWarning,0830.3,5.00,000.00,029.7,026.2,000.0,038.2,030.7,31.8,0000.0,0012.63,0005.64,0004.27
2023-06-30 01:27:00,SystemResetWarning,0830.4,5.00,000.00,029.7,026.5,000.0,038.2,030.8,31.6,0000.0,0012.18,0005.64,0004.25
2023-06-30 01:28:00,SystemResetWarning,0830.3,5.00,000.00,029.7,026.9,000.0,038.2,030.8,32.2,0000.0,0012.37,0005.60,0004.25
2023-06-30 01:29:00,SystemResetWarning,0830.3,5.00,000.00,029.7,027.1,000.0,038.2,030.9,30.9,0000.0,0012.37,0005.63,0004.26
2023-06-30 01:30:00,SystemResetWarning,0830.3,5.00,000.00,029.7,027.4,000.0,038.2,030.9,31.2,0000.0,0011.93,0005.58,0004.26
2023-06-30 01:31:00,SystemResetWarning,0830.2,5.00,000.00,029.7,027.6,000.0,038.2,031.0,31.4,0000.0,0011.95,0005.58,0004.27
2023-06-30 01:32:00,SystemResetWarning,0830.3,5.00,000.00,029.7,027.7,000.0,038.2,031.0,31.1,0000.0,0011.89,0005.59,0004.27
2023-06-30 01:33:00,SystemResetWarning,0830.2,5.00,000.00,029.7,027.9,000.0,038.2,031.0,30.7,0000.0,0011.88,0005.56,0004.26
2023-06-30 01:34:00,SystemResetWarning,0830.3,5.00,000.00,029.7,028.0,000.0,038.2,031.1,30.9,0000.0,0011.96,0005.52,0004.26
2023-06-30 01:35:00,SystemResetWarning,0830.2,5.00,000.00,029.8,028.1,000.0,038.2,031.1,30.9,0000.0,0012.14,0005.54,0004.27
2023-06-30 01:36:00,SystemResetWarning,0830.2,5.00,000.00,029.8,028.2,000.0,038.2,031.2,29.8,0000.0,0011.98,0005.51,0004.26
2023-06-30 01:37:00,SystemResetWarning,0830.2,5.00,000.00,029.8,028.2,000.0,038.2,031.2,29.9,0000.0,0012.09,0005.48,0004.24
2023-06-30 01:38:00,SystemResetWarning,0830.2,5.00,000.00,029.8,028.3,000.0,038.3,031.2,30.2,0000.0,0012.94,0005.47,0004.23
2023-06-30 01:39:00,SystemResetWarning,0830.2,4.98,000.00,029.8,027.5,000.0,038.2,031.1,30.2,0000.0,0012.75,0005.44,0004.21
2023-06-30 01:40:00,SystemResetWarning,0830.2,5.00,000.00,029.8,025.9,000.0,038.1,030.9,30.6,0000.0,0012.41,0005.39,0004.19
2023-06-30 01:41:00,SystemResetWarning,0830.2,5.02,000.00,029.7,025.4,000.0,038.0,030.7,30.0,0000.0,0012.61,0005.44,0004.19
2023-06-30 01:42:00,SystemResetWarning,0830.2,4.99,000.00,029.5,025.5,000.0,038.0,030.5,29.6,0000.0,0012.74,0005.43,0004.17
2023-06-30 01:43:00,SystemResetWarning,0830.2,5.00,000.00,029.5,025.9,000.0,038.0,030.5,30.7,0000.0,0012.84,0005.41,0004.14
2023-06-30 01:44:00,SystemResetWarning,0830.2,5.00,000.00,029.4,026.3,000.0,038.0,030.6,31.1,0000.0,0013.14,0005.49,0004.13
2023-06-30 01:45:00,SystemResetWarning,0830.2,5.01,000.00,029.4,026.6,000.0,038.0,030.7,31.0,0000.0,0013.41,0005.55,0004.12
2023-06-30 01:46:00,SystemResetWarning,0830.1,4.99,000.00,029.4,026.9,000.0,038.0,030.8,30.3,0000.0,0013.12,0005.46,0004.09
2023-06-30 01:47:00,SystemResetWarning,0830.1,4.99,000.00,029.4,027.2,000.0,038.0,030.8,29.7,0000.0,0012.94,0005.42,0004.08
2023-06-30 01:48:00,SystemResetWarning,0830.1,5.01,000.00,029.4,027.4,000.0,038.0,030.9,29.5,0000.0,0012.67,0005.38,0004.05
2023-06-30 01:49:00,SystemResetWarning,0830.1,5.02,000.00,029.5,027.6,000.0,038.0,030.9,29.8,-000.3,0012.43,0005.36,0004.03
2023-06-30 01:50:00,SystemResetWarning,0830.1,4.99,000.00,029.5,027.7,000.0,038.0,030.9,30.0,-000.2,0011.50,0005.41,0004.02
2023-06-30 01:51:00,SystemResetWarning,0830.2,4.99,000.00,029.5,027.9,000.0,038.0,031.0,29.9,-000.0,0011.50,0005.44,0004.02
2023-06-30 01:52:00,SystemResetWarning,0830.1,5.01,000.00,029.5,028.0,000.0,038.0,031.0,29.8,0000.0,0011.23,0005.35,0003.99
2023-06-30 01:53:00,SystemResetWarning,0830.1,5.01,000.00,029.5,028.1,000.0,038.0,031.1,29.5,0000.0,0010.91,0005.28,0003.99
2023-06-30 01:54:00,SystemResetWarning,0830.1,5.00,000.00,029.6,028.2,000.0,038.1,031.1,29.6,0000.0,0010.90,0005.32,0004.00
2023-06-30 01:55:00,SystemResetWarning,0830.2,5.00,000.00,029.6,028.3,000.0,038.1,031.1,29.7,0000.0,0011.12,0005.27,0003.98
2023-06-30 01:56:00,SystemResetWarning,0830.2,4.99,000.00,029.6,028.2,000.0,038.1,031.2,29.5,0000.0,0010.95,0005.20,0003.96
2023-06-30 01:57:00,SystemResetWarning,0830.2,4.99,000.00,029.6,026.8,000.0,038.0,031.0,29.5,0000.0,0011.00,0005.20,0003.95
2023-06-30 01:58:00,SystemResetWarning,0830.3,5.00,000.00,029.6,025.6,000.0,037.9,030.8,29.3,0000.0,0011.07,0005.19,0003.93
2023-06-30 01:59:00,SystemResetWarning,0830.3,5.00,000.00,029.5,025.4,000.0,037.8,030.6,29.1,0000.0,0011.09,0005.18,0003.94
